Wind_Speed
18 16 15 15 15 15 15 17 17 17 17 16 17 16 16 16 16 17 17 17 17 18 18 19 19 20 22 23 23 23 23 23 22 22 21 20 20 19 19 18 18 17 16 16 15 14 14 14 14 14 14 15 16 17 18 18 18 19 20 21 21 20 20 22 22 22 20 19 18 17 15 15 16 16 16 16 15 15 15 16 17 19 18 18 17
21 17 16 15 16 16 16 17 17 17 17 17 16 16 16 15 16 16 16 16 16 17 17 18 18 19 21 22 23 22 22 21 20 20 20 19 19 18 18 19 18 18 17 17 16 15 14 14 14 14 14 15 16 17 18 18 19 20 21 21 21 20 20 20 21 21 20 18 17 16 14 15 16 16 16 15 15 15 14 15 16 18 18 16 16
21 17 16 16 16 16 17 17 17 17 17 18 17 16 16 15 15 15 15 15 15 16 16 17 17 18 19 20 20 20 19 19 18 18 17 17 18 17 17 18 17 17 17 17 17 16 15 15 15 14 15 16 16 17 17 18 19 20 21 20 21 22 21 20 21 21 20 18 17 16 16 16 16 15 15 15 15 15 14 14 14 15 16 15 16
21 18 16 16 16 16 17 17 17 17 18 18 17 16 16 16 15 15 15 14 14 15 15 16 16 17 17 17 18 17 17 17 17 16 15 16 16 16 16 16 16 16 16 17 17 17 16 16 16 15 15 16 17 17 18 19 19 19 19 19 21 22 21 20 19 19 19 18 17 18 18 18 17 16 15 15 15 15 14 14 13 14 14 14 15
21 18 16 17 16 16 17 17 17 17 18 18 17 16 16 16 15 15 15 14 14 14 15 15 15 15 16 16 16 16 16 15 15 15 14 14 14 14 15 15 15 16 15 16 17 17 17 16 17 16 16 16 17 18 18 19 20 20 19 19 20 20 19 18 17 17 17 16 18 19 19 18 17 16 15 15 15 15 14 13 13 13 13 13 14
20 18 16 16 16 16 16 17 17 17 18 17 17 16 16 16 15 15 15 15 14 14 14 14 15 14 15 15 15 15 15 15 14 14 14 14 14 14 14 14 15 15 14 16 17 17 17 17 17 16 16 17 17 18 19 21 22 21 21 21 20 19 18 18 17 16 16 16 18 19 19 18 18 16 14 13 14 14 13 13 12 12 12 12 14
20 19 16 16 15 15 16 17 18 18 18 17 17 16 16 16 16 15 15 15 14 14 13 13 14 14 14 14 14 15 15 14 14 13 13 12 13 15 15 14 14 14 14 15 17 18 17 17 17 17 17 17 17 18 20 23 23 22 22 21 19 18 17 18 17 17 16 17 17 18 19 18 17 15 13 12 13 13 13 12 11 11 11 12 12
20 18 16 15 14 15 15 17 18 18 18 16 16 15 15 15 15 16 15 15 14 14 13 13 13 13 13 13 13 14 14 14 13 13 12 11 12 13 14 14 14 14 13 14 17 17 17 17 18 17 17 16 16 18 20 22 23 22 22 21 18 17 16 16 17 16 16 17 16 15 17 17 16 15 14 12 12 12 12 12 11 11 10 11 11
20 18 16 15 13 15 15 16 18 19 18 16 16 15 15 14 15 16 16 15 14 13 13 13 13 12 12 12 12 12 13 12 12 12 11 11 11 12 12 13 13 13 12 14 16 17 17 18 19 18 17 16 16 18 21 22 23 23 22 20 17 15 14 14 14 14 15 15 15 15 17 17 16 15 14 13 12 11 11 11 11 10 10 10 11
20 17 16 14 14 14 15 16 18 19 17 16 15 15 15 14 14 15 16 15 14 13 13 12 12 12 12 12 11 11 11 12 11 11 12 12 12 12 12 12 12 11 11 13 14 16 17 18 20 19 17 17 18 20 21 22 21 20 19 17 15 12 11 11 11 13 14 14 14 15 15 15 15 14 13 12 11 11 11 11 11 10 10 10 11
18 17 15 14 14 14 15 16 17 18 17 17 16 16 15 14 14 14 15 16 14 13 12 12 12 12 12 11 11 11 11 11 11 10 12 12 12 12 12 12 12 12 11 11 12 14 15 17 19 19 16 16 17 18 19 19 18 16 14 12 10 8 8 10 10 11 14 13 12 13 13 13 13 12 11 11 11 11 11 11 11 10 9 10 10
18 17 15 14 14 14 15 16 18 18 18 17 16 16 15 14 14 14 15 15 15 13 12 12 12 11 12 11 11 11 11 10 10 10 11 12 12 12 12 12 12 12 11 11 11 11 13 15 17 18 16 14 14 15 16 16 15 13 11 9 7 7 8 10 10 11 12 12 12 11 11 11 12 12 11 11 11 11 11 11 10 10 9 9 10
18 16 15 14 14 14 15 16 18 18 17 17 16 15 15 14 14 14 15 15 15 13 12 11 11 11 11 11 11 10 10 10 10 10 10 11 11 10 11 11 11 11 11 11 10 10 11 11 13 15 15 13 13 13 13 12 12 11 9 7 6 7 10 10 11 11 11 11 11 10 10 11 12 12 11 10 11 11 11 10 10 10 9 9 9
17 16 16 14 14 14 15 16 17 18 17 16 16 15 14 14 13 14 14 15 14 13 12 11 11 10 10 11 10 10 10 10 10 10 10 10 10 9 9 9 9 10 11 11 10 10 9 8 10 13 13 13 13 12 12 11 11 10 9 8 6 7 10 11 11 11 10 10 11 10 9 10 12 11 10 10 11 11 10 10 9 10 9 9 9
17 17 16 14 14 14 15 16 17 18 17 16 16 15 15 14 13 14 13 14 14 13 12 11 11 10 9 10 10 10 10 10 10 10 10 9 9 9 9 9 9 10 11 10 10 9 8 7 9 11 11 12 13 13 12 11 11 10 10 10 9 10 11 11 11 10 10 10 10 9 8 8 10 11 10 10 11 10 10 9 9 9 9 9 9
17 17 17 15 14 14 14 15 16 17 16 16 15 15 15 13 13 13 13 13 13 13 12 11 11 10 9 9 9 9 9 10 10 10 10 9 9 9 9 9 9 10 10 10 9 8 8 7 8 11 10 10 12 12 12 11 10 9 9 10 10 12 14 12 10 9 9 9 9 8 7 7 9 10 10 10 10 10 9 9 8 8 9 8 8
18 18 18 17 15 15 15 14 14 15 15 15 14 15 14 13 13 12 12 13 13 12 12 11 11 10 9 9 8 8 9 10 10 10 9 9 9 9 9 8 9 10 9 9 8 7 8 7 8 11 10 9 11 12 11 10 9 8 8 8 9 12 15 13 10 8 8 8 8 7 6 6 8 10 9 9 9 9 8 8 8 8 8 8 8
18 18 19 18 16 16 15 15 14 15 15 15 14 14 14 13 12 12 12 12 12 11 12 12 10 9 9 9 9 8 9 9 10 10 9 9 9 9 9 8 9 10 9 8 8 7 7 7 8 11 11 9 10 11 10 9 8 7 7 6 6 10 14 14 12 9 7 7 7 6 5 5 7 9 9 8 8 8 8 7 8 8 7 7 7
18 18 19 18 16 15 15 14 14 14 15 15 14 13 13 13 12 12 11 11 12 11 11 12 10 10 10 10 9 8 9 9 10 10 10 9 9 10 9 8 10 10 9 7 8 7 8 8 7 10 12 11 9 10 10 8 7 6 6 5 5 9 14 15 13 10 8 7 6 6 5 4 5 7 9 8 8 7 7 7 7 7 7 6 6
18 19 19 17 15 14 14 13 12 13 13 14 14 13 12 12 12 11 11 11 11 11 11 11 10 9 10 11 9 8 9 9 9 9 9 9 10 10 9 9 10 11 10 8 8 8 8 9 8 8 12 13 10 9 10 8 6 6 6 5 4 8 13 15 15 12 9 7 6 5 5 4 4 5 7 7 8 8 7 7 7 6 6 6 6
18 19 19 17 15 14 13 12 12 12 12 12 12 12 12 11 11 11 11 11 11 11 10 10 10 9 11 11 9 9 9 9 9 9 9 9 10 9 9 9 10 10 9 8 8 8 8 9 9 8 11 14 10 9 11 9 6 6 6 5 4 8 12 15 16 13 10 8 6 5 5 4 3 4 5 6 7 7 7 7 6 6 5 5 5
18 18 17 16 15 14 13 12 12 12 12 11 12 12 12 12 11 11 11 11 11 11 10 10 10 11 12 11 9 8 8 8 9 10 9 9 9 9 8 9 10 10 9 8 8 7 8 9 10 10 12 14 11 10 11 10 7 6 7 6 4 8 13 15 16 13 10 9 7 5 5 4 3 4 4 5 6 7 7 7 6 5 5 4 5
18 17 16 16 15 15 14 13 13 13 13 12 12 12 12 12 11 11 11 11 11 11 11 11 10 11 12 10 9 8 9 9 10 10 9 9 9 8 8 10 10 9 8 8 7 7 8 9 10 12 13 13 11 10 11 10 8 7 8 7 5 8 13 14 14 13 10 9 7 6 5 4 3 3 3 4 5 6 7 8 6 5 5 4 5
18 17 16 16 16 15 14 13 13 13 13 13 13 12 12 12 12 11 12 12 11 11 11 11 10 11 12 10 9 9 10 10 10 10 9 9 9 8 9 10 10 8 8 8 8 7 9 10 11 13 13 14 13 10 10 9 8 7 8 8 6 7 13 14 14 13 11 9 7 6 6 4 4 4 4 3 5 6 6 7 7 6 5 4 4
17 15 15 15 15 14 14 13 12 12 12 13 13 13 13 13 12 12 12 12 12 12 12 11 11 11 11 11 11 11 11 11 11 10 10 11 11 10 10 10 10 9 9 8 9 9 10 12 12 14 14 14 13 11 9 8 7 6 8 9 7 7 11 14 14 13 11 9 7 6 6 4 4 4 4 4 5 5 5 8 8 6 5 4 4
16 15 14 14 14 13 12 12 11 11 11 12 13 13 13 13 14 13 13 13 13 13 13 12 12 12 12 11 12 12 12 12 12 11 12 12 12 12 12 12 11 11 11 9 9 10 11 13 13 15 14 13 12 10 8 7 6 5 7 10 8 7 9 13 14 13 12 10 8 7 5 4 4 5 5 4 5 6 6 7 8 7 6 4 3
17 16 15 14 13 13 12 10 10 10 9 10 11 12 12 13 14 14 14 14 14 14 14 13 13 12 12 12 12 13 13 13 13 12 12 12 13 13 13 13 13 12 11 10 10 10 11 13 14 15 14 12 11 9 7 6 5 4 6 9 9 8 8 10 13 13 12 11 9 8 5 4 4 4 5 5 5 6 7 6 7 7 6 5 4
17 16 16 15 14 13 12 10 9 8 7 8 9 10 10 11 12 13 14 14 14 14 13 13 13 13 12 11 11 12 13 13 13 12 11 12 12 14 14 15 14 12 12 11 10 10 11 12 14 14 13 12 11 9 7 5 5 4 5 9 10 9 8 8 11 14 13 12 10 8 6 5 5 5 5 5 5 7 7 6 6 7 7 7 7
18 17 15 16 15 13 12 11 10 9 7 7 8 9 9 10 11 12 13 14 15 14 13 13 13 13 11 10 10 11 13 13 13 12 12 12 13 14 15 15 14 13 13 12 11 10 11 12 12 12 13 13 12 9 8 6 5 4 5 9 10 10 9 7 9 12 13 12 11 9 8 7 6 5 5 5 5 6 7 6 5 6 7 6 7
20 18 16 16 14 13 11 10 10 9 8 8 7 7 8 9 10 11 12 14 15 14 14 13 13 12 10 9 9 11 13 13 13 14 14 14 14 15 16 17 15 14 14 13 12 11 11 12 12 12 12 12 12 10 8 7 6 5 6 8 10 10 10 9 9 11 13 14 12 11 9 8 7 6 6 5 5 7 7 6 6 6 7 6 6
21 19 17 15 14 12 10 10 11 10 9 9 8 6 6 7 8 9 11 13 15 15 15 14 13 12 10 9 9 10 12 12 13 14 15 15 16 17 18 17 15 14 14 14 13 12 11 11 12 13 13 13 12 11 10 9 8 7 7 9 10 11 11 10 10 11 14 15 14 13 11 9 9 8 8 7 6 7 7 7 6 7 7 6 6
20 19 17 15 14 12 10 10 12 12 11 10 9 8 7 6 7 7 8 9 11 13 15 15 13 11 11 10 10 11 11 12 13 14 16 16 16 17 17 16 16 16 16 15 14 13 11 11 12 12 13 14 13 12 12 12 12 11 10 11 13 14 13 11 11 11 13 16 17 15 13 11 10 10 10 8 8 8 8 8 7 8 8 7 6
19 18 16 14 13 12 11 10 12 12 11 11 10 10 9 8 6 5 5 4 4 6 9 12 11 10 10 9 10 11 11 12 13 15 16 15 15 15 15 16 18 18 17 16 16 15 12 9 9 10 11 12 13 12 11 12 13 13 13 14 15 17 16 14 13 12 14 17 18 18 16 14 12 11 11 10 9 9 9 10 9 10 9 8 7
19 17 16 14 13 13 13 11 11 11 12 12 12 12 11 9 7 5 5 6 4 4 6 8 9 9 8 7 7 8 9 11 12 13 14 13 12 13 14 16 17 17 15 15 17 17 16 12 9 8 9 11 13 12 10 11 13 15 15 16 17 18 18 17 16 16 16 17 19 20 19 17 15 13 12 12 11 10 11 11 11 11 10 9 8
21 19 17 15 14 15 15 14 12 12 12 13 13 12 10 8 7 6 7 7 6 5 6 6 6 5 5 4 4 4 5 7 8 11 12 11 10 12 14 14 13 13 14 16 17 17 18 18 14 11 12 13 14 13 11 11 13 16 17 16 18 20 19 19 19 18 18 19 20 21 21 20 17 15 14 14 13 11 11 12 13 12 12 11 10
22 20 18 16 15 15 16 15 13 13 13 14 14 12 10 8 8 8 9 9 7 5 4 5 6 5 4 4 3 2 2 2 4 6 7 8 10 12 13 12 10 10 13 15 16 17 19 20 18 15 15 15 15 15 13 12 11 13 14 16 19 21 21 21 19 17 17 20 22 23 23 23 20 17 17 16 15 13 12 13 14 14 13 13 12
22 21 20 18 17 17 18 17 15 14 14 15 14 12 10 9 9 10 10 9 6 5 3 4 7 6 5 4 2 1 1 0 1 2 3 6 9 10 10 11 11 11 12 13 14 15 17 18 18 17 17 16 16 15 14 12 9 8 9 14 18 21 22 22 18 15 15 18 22 24 25 24 22 20 19 19 17 15 14 14 15 15 15 14 13
23 22 20 19 19 19 19 19 17 15 14 14 13 12 12 11 10 10 9 7 6 5 4 5 8 7 5 5 4 3 3 3 2 1 1 5 7 6 6 9 12 11 9 10 11 11 13 15 17 18 18 18 17 15 14 13 10 7 6 8 14 19 21 19 17 16 15 16 19 22 24 24 24 23 22 21 20 18 16 15 16 17 16 16 15
24 22 20 19 18 19 19 19 18 16 15 14 14 14 13 12 10 9 8 8 7 7 6 7 8 7 5 5 4 3 4 4 5 4 1 3 4 4 3 3 8 9 8 9 8 7 9 11 14 16 17 18 17 16 16 15 13 11 8 5 7 12 17 17 17 17 17 16 17 19 21 23 25 25 24 23 22 21 19 17 17 18 18 17 16
25 23 21 19 19 20 20 19 19 18 18 18 17 17 15 13 11 9 9 9 9 8 8 7 7 6 5 4 3 1 0 1 2 3 3 2 3 4 3 3 1 4 6 7 7 8 8 7 9 12 14 17 15 14 15 16 16 16 12 7 6 8 12 15 17 18 18 17 16 18 20 21 23 25 26 26 25 23 22 20 19 19 19 19 18
25 24 22 21 20 21 22 21 20 20 20 20 19 18 16 14 12 11 11 10 8 6 6 5 5 4 4 3 2 1 2 1 1 1 1 1 2 4 4 4 5 4 4 2 2 5 9 9 7 7 10 13 11 9 9 10 12 13 11 9 9 9 10 12 15 17 19 19 18 18 19 20 22 24 26 27 27 26 25 23 22 21 21 21 20
27 26 24 23 21 21 23 23 23 23 21 20 19 17 16 14 13 12 11 10 7 5 6 5 4 4 3 2 1 0 1 1 1 1 2 2 2 3 6 7 8 8 9 9 8 6 3 7 6 5 6 8 7 7 9 7 5 4 6 7 8 10 11 11 13 15 17 19 20 20 19 20 21 22 24 27 28 28 27 26 24 24 23 22 22
28 27 25 24 24 23 24 25 26 25 22 19 18 17 15 13 12 11 11 10 8 7 7 6 4 3 3 2 2 2 2 2 3 3 4 5 4 4 6 8 10 10 10 12 11 11 8 5 5 6 6 7 7 7 7 7 5 4 5 4 3 4 6 7 10 14 17 18 20 21 21 21 22 21 23 26 28 29 29 28 28 26 25 24 24
28 29 28 27 27 27 27 28 27 25 23 20 17 16 14 13 12 11 11 10 10 9 8 6 5 3 3 3 3 2 2 1 1 3 4 5 5 6 7 8 10 10 10 12 13 13 13 11 10 9 7 6 5 6 4 3 4 4 3 2 1 2 2 3 7 10 14 18 21 22 22 22 22 21 23 25 27 27 28 29 30 29 28 27 26
29 30 30 31 31 30 30 29 28 25 23 20 18 16 15 15 14 12 11 10 10 10 8 7 6 4 3 3 2 3 3 3 3 2 2 2 3 4 5 7 8 8 8 10 11 11 12 12 13 13 12 9 7 6 5 6 5 2 2 1 1 2 2 3 7 6 8 11 16 20 22 23 22 21 22 24 25 26 26 27 29 30 30 29 29
31 32 33 34 34 32 31 30 28 26 23 21 19 17 17 18 17 15 14 13 12 10 8 8 6 4 3 3 3 5 6 5 4 2 1 0 0 1 2 5 6 6 7 7 8 8 9 11 11 12 13 12 10 10 10 10 8 6 6 4 4 4 3 4 4 3 7 10 9 10 14 16 18 20 21 23 24 25 26 26 28 28 28 30 30
30 32 33 35 34 33 32 31 28 26 24 22 20 19 19 20 18 17 15 14 13 11 9 8 6 4 4 3 3 5 6 6 6 4 3 1 0 1 1 2 4 4 4 5 6 7 8 9 9 10 11 11 11 12 12 12 9 9 9 8 7 7 6 5 2 2 5 8 10 13 11 9 10 13 16 20 22 23 25 26 27 27 27 28 30
29 31 34 34 34 33 32 31 29 27 25 23 22 21 22 21 19 17 15 14 13 11 10 9 7 6 5 4 4 5 4 5 6 5 4 2 2 2 2 3 4 5 5 5 7 7 7 7 8 8 9 10 11 11 10 10 10 10 10 9 8 8 7 7 7 5 3 4 9 15 17 16 14 13 13 15 17 19 22 24 25 27 27 28 28
31 34 35 36 35 34 33 31 29 28 25 24 23 23 24 22 19 17 16 14 12 11 11 10 9 8 7 6 6 5 4 4 5 4 4 3 3 4 5 6 6 7 6 7 7 7 8 9 9 9 9 10 10 10 9 9 10 10 9 9 9 9 8 6 6 7 5 4 4 6 12 18 19 19 18 16 15 15 17 20 22 24 27 28 29
31 33 34 35 36 35 34 32 31 29 26 25 25 25 25 24 20 18 17 16 15 13 13 12 12 10 9 8 6 6 5 4 4 4 3 3 4 4 4 5 6 7 7 7 8 8 9 10 10 10 10 10 10 10 9 9 9 9 8 9 9 9 8 5 5 5 5 6 5 4 8 11 12 19 23 21 19 19 19 20 20 22 24 26 28
27 29 31 33 35 35 35 35 33 30 28 27 27 27 27 24 22 20 18 18 17 16 16 15 14 13 11 9 7 6 6 5 4 4 3 2 2 2 3 4 5 7 8 9 9 9 10 10 10 10 9 10 10 10 9 9 9 8 8 8 8 8 7 5 7 9 8 6 6 5 7 10 11 17 24 25 24 23 23 22 22 22 24 25 27
Wind_Direction
177 168 157 156 154 154 151 144 140 135 133 136 137 135 132 131 127 124 121 117 116 114 110 109 111 115 116 118 121 123 123 122 121 119 118 117 115 114 114 114 113 113 112 110 111 111 118 124 121 122 123 122 122 124 124 123 124 122 120 117 114 113 114 113 110 109 109 107 106 105 103 102 101 99 98 97 94 92 91 92 95 93 89 87 86
172 166 157 155 156 154 152 146 143 139 136 138 138 137 135 134 131 127 123 117 117 118 115 112 114 119 122 121 121 123 123 122 121 121 119 118 116 115 116 115 114 113 112 112 110 108 115 122 119 122 122 121 122 123 123 124 126 124 123 122 119 117 113 113 112 111 111 109 109 109 103 101 101 100 98 98 96 92 91 91 93 93 91 90 88
164 162 157 153 157 155 151 147 145 142 139 140 141 141 138 138 135 130 125 118 118 121 120 116 118 122 126 127 126 126 125 124 123 122 121 121 118 117 118 116 115 114 112 109 105 104 112 119 118 121 122 121 121 121 121 124 126 125 127 127 123 120 117 116 115 116 116 114 114 110 102 102 102 101 98 98 96 92 91 90 89 90 91 91 89
163 160 157 152 155 154 150 147 146 145 142 142 143 143 142 141 138 134 128 121 121 125 126 120 120 124 127 129 129 129 126 125 125 124 123 123 121 120 120 120 118 116 114 109 103 104 112 118 118 119 121 120 121 121 120 123 125 126 127 128 127 125 124 122 121 122 123 122 118 111 106 107 105 102 100 98 95 92 90 87 87 88 88 88 88
162 160 158 152 152 153 151 148 147 146 144 144 145 145 145 144 140 138 133 127 125 128 131 125 123 126 129 131 132 130 127 127 126 126 125 124 124 125 125 126 123 118 117 112 105 106 114 120 120 118 119 120 121 121 120 122 123 122 122 126 130 128 125 122 123 127 128 127 120 116 115 111 107 104 103 101 98 97 94 90 89 88 88 88 88
162 161 160 154 151 151 150 148 147 148 147 145 147 147 147 146 143 140 138 134 130 132 134 131 127 128 131 133 134 131 128 128 129 129 129 132 134 131 129 129 123 118 118 115 108 108 115 120 123 118 117 121 120 122 123 122 120 117 116 122 128 127 121 118 119 125 130 129 122 119 116 110 108 108 107 104 100 99 98 94 91 89 88 86 86
164 163 160 156 151 149 148 148 148 151 150 148 148 149 148 148 146 143 142 140 136 136 137 136 132 131 133 134 136 133 131 130 131 133 134 140 141 136 131 128 122 117 116 117 112 109 115 120 124 120 118 123 121 123 126 124 122 118 114 117 123 123 117 112 111 117 122 123 120 120 118 116 116 113 110 107 101 99 98 94 91 90 90 85 84
168 165 161 159 151 148 148 147 149 154 153 151 150 149 150 150 149 146 146 145 142 141 141 143 136 133 136 136 138 137 137 133 132 133 136 141 140 137 133 127 123 122 118 117 115 112 117 120 125 125 121 124 123 125 129 129 126 122 118 115 118 120 116 109 108 112 117 118 118 119 120 117 113 110 109 108 103 101 99 96 92 91 90 86 85
170 168 163 159 152 148 148 148 149 155 156 154 153 150 151 153 153 150 150 150 148 146 145 147 142 138 140 140 140 140 142 139 136 133 135 141 136 134 134 129 124 124 119 114 116 115 119 123 126 130 128 128 129 132 135 135 130 127 124 119 116 119 120 115 110 112 115 119 121 119 118 118 116 116 117 114 110 106 103 101 95 91 90 88 85
169 167 165 160 153 149 149 150 150 156 158 156 156 154 155 156 156 155 155 155 154 152 150 151 147 144 145 144 144 144 147 145 141 136 136 142 138 135 137 132 123 120 115 112 116 118 120 126 130 133 134 137 137 138 139 139 136 134 131 124 118 120 127 128 122 115 116 121 125 125 126 131 129 125 125 122 115 108 103 101 95 91 90 89 86
167 167 167 162 155 151 151 151 151 156 160 159 162 159 158 159 159 160 160 161 159 157 154 154 152 149 149 147 148 149 152 151 147 143 140 141 141 138 135 132 126 122 120 115 116 121 122 126 134 137 138 141 141 141 142 145 145 143 140 134 131 135 142 147 141 127 121 122 126 132 138 140 133 126 126 123 117 112 108 105 100 97 92 91 91
168 170 169 167 158 152 154 153 153 156 161 163 164 163 162 160 160 162 164 165 165 162 159 158 156 153 151 150 152 153 155 155 151 149 145 143 142 139 135 134 131 127 127 123 117 124 128 127 134 141 146 148 147 147 147 150 152 152 150 150 158 165 173 170 155 141 129 126 128 134 142 140 130 126 126 125 122 118 114 110 105 103 96 94 93
166 172 172 170 160 153 155 154 154 156 160 163 165 166 164 162 161 164 165 168 169 166 163 162 160 157 155 153 154 156 158 157 156 155 150 147 145 143 141 139 135 130 130 128 123 127 135 134 135 140 149 156 154 155 155 156 157 155 148 152 172 168 176 180 165 153 139 132 132 135 145 141 131 131 132 131 127 121 116 112 111 110 102 97 95
167 173 175 173 159 154 157 156 157 156 158 162 166 167 166 164 163 164 166 169 170 169 167 166 164 161 159 156 157 158 159 161 161 160 157 154 151 154 153 147 139 134 132 131 130 133 139 145 149 145 146 157 157 157 158 158 156 150 134 134 157 156 165 173 168 162 148 140 138 140 149 146 140 137 134 130 127 124 121 117 116 117 109 103 100
170 173 175 172 158 155 158 160 160 157 160 163 167 169 169 169 165 165 166 169 171 172 171 169 168 166 162 159 162 160 159 164 166 165 167 167 163 165 164 156 145 139 134 132 133 138 145 149 162 158 148 154 159 158 156 154 151 145 130 127 145 152 158 162 163 164 154 148 147 147 150 153 150 141 135 132 130 129 126 122 119 120 114 105 103
175 175 173 169 157 155 157 162 162 158 161 164 169 170 170 173 170 165 165 170 171 174 175 173 172 170 167 164 166 162 160 165 169 172 176 177 172 172 171 162 151 145 137 134 136 139 145 149 166 170 157 153 158 161 156 151 148 144 131 125 144 159 164 163 160 165 162 155 153 156 157 156 149 139 138 136 134 134 130 125 122 122 114 106 105
179 176 173 169 160 159 160 163 163 160 161 164 167 169 171 173 172 169 167 171 171 175 179 177 175 172 171 170 171 167 163 165 171 176 180 182 178 178 176 168 159 154 143 139 139 138 144 151 168 176 169 157 159 164 159 151 147 145 134 121 144 167 172 172 167 167 168 161 157 162 161 152 146 141 141 141 141 137 131 127 124 119 114 111 109
179 178 175 172 164 163 165 163 164 163 162 163 166 168 170 172 175 174 172 173 173 177 180 179 178 174 174 176 177 175 167 165 170 176 178 179 179 182 180 171 168 162 151 146 145 142 150 155 169 181 180 168 162 166 164 157 149 145 133 117 146 172 178 181 178 173 172 169 161 161 154 146 151 149 146 147 146 138 133 130 126 122 118 116 111
174 178 176 175 170 167 166 165 167 166 165 165 166 167 167 171 174 176 176 177 177 179 181 183 184 181 180 177 178 181 174 168 171 176 176 177 181 186 184 175 174 172 162 158 157 154 159 161 172 189 189 179 168 171 172 163 153 146 131 118 146 168 178 184 182 177 176 176 164 157 149 144 155 157 155 153 146 141 142 137 130 126 121 118 115
170 175 175 176 174 171 169 167 170 170 173 172 170 169 166 169 170 173 176 176 181 182 181 185 190 190 184 178 179 185 181 174 176 181 181 182 187 189 187 182 180 179 175 171 167 166 170 170 172 191 196 185 172 174 180 170 154 153 135 122 147 162 173 182 184 181 178 176 165 156 153 147 146 156 165 161 154 153 153 144 135 133 128 122 117
167 173 174 177 177 176 174 171 174 177 180 180 177 171 167 171 170 173 176 177 181 183 184 188 195 195 187 181 182 188 185 181 184 188 190 192 195 194 191 190 185 180 182 179 172 176 182 179 174 183 194 187 175 174 179 173 158 160 145 129 151 161 166 178 185 185 179 176 167 158 156 153 141 149 173 179 176 170 159 150 145 146 139 129 119
167 174 178 181 182 183 182 181 182 185 187 187 184 176 173 176 173 175 179 179 179 181 189 194 198 197 190 186 186 191 193 194 196 194 195 197 199 199 196 195 189 181 183 180 176 186 192 190 181 177 185 186 183 178 176 173 164 166 155 139 154 164 168 177 184 185 183 179 171 163 160 157 147 151 181 201 202 191 169 157 158 156 145 138 132
171 177 183 186 188 188 190 192 192 193 194 194 191 186 183 182 179 180 181 180 180 184 192 196 197 195 193 192 193 198 202 208 209 202 198 199 200 201 202 199 191 184 182 180 184 193 194 196 188 179 183 189 194 188 179 176 172 173 164 149 148 164 172 179 185 188 187 184 175 171 170 166 164 169 200 217 210 207 185 166 165 162 151 151 144
170 173 179 185 192 194 195 199 201 202 201 201 200 195 192 189 186 185 184 183 185 187 192 197 195 192 194 197 203 207 209 215 214 207 203 202 202 201 203 201 193 187 183 184 191 195 191 192 190 186 189 195 201 200 189 184 181 181 173 161 149 161 175 182 189 192 191 189 183 177 175 178 180 187 217 225 212 217 197 172 170 171 165 164 152
165 165 168 174 185 191 194 197 201 205 206 206 205 203 199 196 195 192 190 188 190 190 192 196 193 192 195 200 207 210 211 215 216 213 211 209 204 202 201 201 195 189 190 191 192 193 191 191 191 191 196 201 205 208 200 190 187 187 182 173 161 161 176 185 192 196 194 194 191 185 181 184 191 201 222 229 217 217 196 176 173 176 183 184 166
163 163 162 164 172 178 185 190 196 201 205 207 207 207 205 204 205 201 197 196 196 195 195 197 196 196 196 201 206 208 210 212 216 217 216 213 208 205 203 202 198 193 195 196 194 192 191 193 193 195 201 207 208 210 206 193 184 181 186 184 176 168 174 185 194 199 201 200 197 191 185 187 198 206 221 233 225 219 209 194 189 192 193 191 186
163 164 164 162 165 171 178 183 189 194 201 208 209 211 211 211 210 207 206 203 201 202 202 201 200 200 198 203 205 206 208 210 216 218 218 217 214 212 209 206 204 201 199 198 197 190 189 193 194 199 207 211 209 209 207 199 185 168 180 190 185 176 172 183 196 202 205 205 202 197 192 194 206 208 221 235 230 227 233 230 218 215 207 191 194
155 160 167 168 168 171 176 178 181 187 197 205 210 215 215 214 209 206 207 206 205 206 208 207 204 206 206 209 212 211 213 214 218 221 224 223 222 221 215 211 207 204 200 200 200 190 188 190 192 201 208 209 208 208 210 207 203 177 172 188 190 187 184 185 196 204 207 208 206 204 202 204 212 216 225 236 232 232 246 253 236 228 225 199 190
143 146 157 165 169 173 177 177 179 183 190 194 202 211 211 209 209 210 209 207 208 207 209 211 209 210 214 216 217 220 220 219 223 228 230 231 233 229 221 218 212 206 203 202 203 194 189 187 185 196 205 209 209 210 219 222 224 211 182 186 192 195 202 204 202 206 207 209 210 208 210 214 220 224 229 238 235 236 250 260 247 233 236 218 200
138 139 145 152 160 167 173 174 176 180 182 180 188 200 205 205 212 218 215 210 209 207 208 209 209 212 217 218 219 223 226 227 231 232 229 231 236 233 226 222 214 208 206 206 207 203 198 192 184 188 200 213 215 216 229 240 245 235 211 201 204 207 215 224 222 215 211 211 212 211 215 221 224 227 231 238 238 239 248 259 258 239 245 252 225
141 139 140 144 150 160 168 164 164 168 169 168 169 180 191 200 212 222 224 218 211 209 210 208 207 211 213 217 221 223 226 231 235 237 233 229 231 234 231 225 219 215 212 209 212 211 208 205 197 193 202 216 224 231 242 256 264 257 239 225 223 226 226 233 238 230 220 216 214 214 219 225 225 226 230 235 238 238 242 251 251 231 237 253 236
146 144 140 143 149 159 165 159 157 161 163 161 157 158 166 181 202 215 222 223 219 219 219 215 216 219 216 219 226 227 230 235 239 241 238 231 230 233 233 231 230 223 215 210 215 217 211 212 211 208 213 222 235 247 257 264 268 269 260 244 236 233 230 233 240 241 231 223 218 217 221 226 227 224 227 232 238 237 235 242 240 231 237 243 231
151 149 147 147 149 157 164 166 162 160 160 157 152 147 149 156 164 178 178 171 197 224 223 216 219 221 214 217 227 231 235 239 241 241 239 237 236 235 234 237 235 228 220 210 213 218 212 210 216 221 225 228 238 250 264 269 268 270 268 258 247 234 228 230 236 242 240 231 223 221 222 227 229 225 226 229 234 237 234 236 235 240 248 245 230
158 158 159 155 151 155 161 165 165 162 159 155 150 145 144 145 145 148 144 134 139 176 203 210 216 217 211 212 222 226 231 236 240 244 244 241 237 237 238 241 239 236 235 223 216 217 217 218 216 230 239 233 237 245 259 270 272 274 271 264 250 233 227 230 236 240 241 236 229 225 223 227 230 227 227 227 230 234 236 236 234 239 246 244 238
167 166 167 164 158 157 159 159 159 160 157 156 154 150 149 148 147 143 138 136 134 156 184 198 202 199 188 188 198 204 220 235 246 254 253 243 236 238 237 241 247 248 249 241 230 221 220 224 220 231 249 240 237 242 252 265 271 272 269 258 241 229 225 231 238 241 238 235 231 228 227 228 229 230 229 228 229 230 234 238 235 237 240 243 245
174 170 170 169 165 164 166 164 160 158 155 155 155 153 153 153 156 152 146 145 141 149 168 186 183 160 135 155 166 154 169 223 257 275 277 260 250 248 242 240 240 241 245 243 237 227 222 226 223 229 249 249 244 244 248 260 275 275 266 250 235 228 229 233 238 241 236 234 233 231 230 230 231 232 232 229 230 231 233 236 236 237 238 241 246
179 176 175 175 173 171 173 173 169 165 159 156 157 157 155 150 151 151 149 150 153 154 150 168 176 160 140 150 146 122 114 143 255 310 312 285 270 262 252 238 224 222 234 242 243 233 224 225 223 229 247 256 257 255 254 258 275 296 275 249 238 235 235 234 237 241 238 236 236 235 235 235 235 234 234 233 232 233 233 234 235 236 238 241 244
181 182 182 182 181 176 175 174 172 172 168 164 165 165 158 149 143 142 144 144 144 145 142 152 163 163 149 130 111 93 78 71 62 54 264 278 287 286 271 237 222 220 230 243 250 245 232 229 227 233 246 258 264 266 267 266 272 300 297 252 243 239 236 235 237 243 243 240 239 238 241 242 240 237 236 235 234 234 234 234 234 234 237 242 242
181 183 184 185 184 178 174 172 170 168 165 162 161 158 152 146 140 140 143 134 124 125 134 145 153 160 155 137 123 107 83 74 70 68 61 289 319 340 331 249 218 214 212 223 234 239 237 239 240 239 245 257 267 270 270 270 272 289 295 264 252 243 239 240 242 244 247 249 245 241 243 245 243 241 240 238 236 236 235 234 233 233 235 239 241
182 182 182 184 184 178 175 173 169 165 159 153 152 152 150 145 139 140 138 128 123 124 133 145 154 165 172 168 167 160 130 85 90 83 76 3 8 20 11 5 285 207 194 210 228 233 232 244 254 253 255 260 268 272 271 271 273 285 291 277 269 258 246 247 247 246 247 253 252 244 243 245 245 243 243 241 238 237 237 235 234 235 236 237 239
182 183 182 183 184 181 179 176 171 168 162 155 152 153 153 150 146 145 137 127 127 132 142 156 175 193 201 206 205 251 294 290 251 212 136 90 38 45 50 42 35 63 88 74 294 271 249 241 250 263 269 269 265 258 263 275 277 284 295 291 281 267 253 250 250 247 248 252 253 249 245 244 244 243 244 243 240 239 239 238 238 238 238 237 237
181 183 184 183 183 184 183 178 173 170 166 162 159 157 159 159 156 154 146 135 128 134 149 158 182 204 207 205 182 18 338 47 87 116 123 121 104 61 60 65 64 66 62 55 46 26 295 253 265 285 292 302 295 266 256 266 286 316 325 313 295 273 258 252 251 250 251 252 250 250 249 247 245 243 244 244 243 242 242 241 241 240 240 239 238
182 184 185 181 181 182 182 178 174 171 169 169 167 165 167 167 163 157 149 140 131 133 141 139 144 164 174 158 111 95 111 102 87 95 101 97 100 90 74 74 74 71 65 62 61 52 41 25 360 337 330 341 333 313 290 270 279 319 318 301 307 296 275 267 261 255 253 253 250 248 249 250 251 248 245 245 244 244 245 244 243 242 242 242 240
183 184 183 180 179 179 178 176 176 174 173 176 177 176 176 174 167 158 152 146 141 141 141 142 145 149 152 146 121 106 140 173 120 107 109 98 93 87 76 75 74 72 69 66 63 57 51 49 44 30 16 8 340 328 339 318 290 281 269 256 297 316 272 320 315 276 255 251 249 246 246 249 253 251 246 245 246 247 248 248 247 246 245 245 243
186 186 184 180 179 179 177 177 177 177 178 181 183 184 181 174 167 159 155 151 149 152 155 159 167 170 164 158 123 96 119 166 163 141 140 111 88 79 68 69 70 66 63 61 59 56 52 49 49 46 42 37 13 353 14 20 3 312 277 249 292 289 224 350 346 306 275 265 253 246 246 249 253 254 251 249 249 250 250 251 251 251 250 249 246
190 188 185 182 180 180 179 180 180 180 182 186 188 190 186 179 174 170 168 164 164 166 167 166 169 175 171 163 124 98 98 117 140 145 156 216 334 29 46 55 60 57 53 54 53 46 40 38 38 40 42 41 35 30 26 18 14 3 346 319 291 287 280 342 354 310 309 304 281 260 252 255 260 260 259 257 254 254 254 253 252 253 254 253 251
191 188 187 185 184 183 182 183 184 183 185 190 195 197 192 188 187 186 184 184 179 173 171 171 175 191 190 176 149 121 105 103 114 116 107 111 355 326 335 25 41 42 34 31 36 32 26 23 22 26 31 32 36 40 30 16 15 15 3 349 325 304 284 285 270 265 312 308 308 307 295 289 285 272 269 267 264 262 261 258 256 256 255 255 254
190 188 188 188 187 186 185 187 187 188 190 195 199 200 196 195 195 195 195 197 189 175 173 176 181 196 198 186 166 146 132 118 119 115 105 100 72 62 53 50 52 46 39 33 33 30 25 21 15 17 19 20 27 33 29 20 17 13 4 358 348 333 311 287 273 271 275 285 306 304 297 302 306 292 284 283 280 273 268 266 263 262 261 259 257
190 190 189 189 189 188 188 190 192 194 195 196 199 200 200 200 200 201 202 202 195 183 181 185 190 194 190 186 175 154 141 131 127 119 106 92 72 68 62 65 66 56 50 44 37 29 24 21 14 9 7 9 14 16 16 14 15 15 10 3 354 344 336 322 298 277 261 273 300 301 299 307 307 297 292 290 288 283 278 276 273 270 267 265 263
192 191 190 190 190 190 192 193 196 197 196 196 198 199 201 203 206 208 207 204 198 192 190 193 195 194 189 185 179 164 150 136 127 117 112 97 77 70 63 63 56 43 35 27 24 20 14 9 2 355 349 351 357 1 5 4 4 10 10 6 1 354 342 331 317 295 271 264 270 275 288 297 300 298 299 297 292 288 286 284 282 278 273 270 268
192 192 192 192 192 193 195 196 197 198 198 197 198 201 203 207 211 212 210 206 201 198 197 197 197 196 194 190 184 177 172 165 155 137 127 127 110 90 59 43 26 16 12 9 7 5 1 358 355 351 345 345 346 346 350 350 350 355 1 4 2 358 343 325 323 317 301 277 277 280 279 281 277 285 295 299 296 292 291 288 285 282 278 276 273
Height
785 786 787 788 789 789 791 791 792 792 793 794 794 795 796 797 798 799 800 800 800 801 802 803 804 804 805 806 807 807 808 808 809 809 810 810 810 811 811 811 811 812 812 813 813 813 813 813 814 815 815 815 815 815 815 816 817 817 818 818 819 819 819 818 818 819 820 822 823 823 824 825 825 825 825 826 826 826 825 825 824 824 824 824 825
783 786 787 788 789 789 791 791 792 793 793 794 795 796 796 798 799 800 800 800 801 802 803 804 805 806 806 807 808 808 809 810 810 811 811 811 812 812 812 812 812 813 813 814 814 814 814 814 815 815 816 816 816 816 816 817 818 818 819 819 820 820 820 819 819 820 821 822 823 824 825 825 826 826 826 826 827 827 827 826 826 825 825 825 825
783 785 786 787 789 789 790 791 792 793 794 794 795 796 797 798 799 800 801 801 802 803 804 805 806 807 808 808 809 810 810 811 811 812 812 813 813 813 813 813 813 814 814 814 814 814 814 815 816 816 817 817 817 817 817 818 819 819 819 820 821 821 821 820 820 820 821 822 823 824 825 826 827 827 827 827 827 828 828 828 827 826 826 826 826
783 785 786 788 789 790 790 791 792 793 794 795 796 797 798 799 799 801 801 802 803 804 805 806 807 808 809 809 810 811 811 812 813 813 814 814 814 814 814 814 814 815 815 815 815 815 815 815 816 817 818 818 818 818 819 819 820 821 820 821 821 822 822 822 822 822 822 823 824 825 825 826 827 828 828 828 828 828 829 829 829 828 828 827 827
783 785 786 787 788 790 790 791 793 794 794 795 796 797 798 799 800 801 802 803 804 805 806 807 808 809 810 810 811 811 812 813 813 814 815 815 815 815 815 815 815 815 816 816 816 816 816 816 817 818 819 819 819 819 820 820 821 822 821 822 822 823 822 822 823 823 823 824 825 825 826 827 827 829 829 829 829 829 830 830 830 830 829 829 828
783 785 786 787 789 790 791 792 793 794 795 796 797 798 799 799 801 802 802 804 805 806 807 808 809 810 811 811 812 812 813 813 814 815 815 816 816 816 816 817 817 817 817 817 817 817 817 817 818 819 819 820 820 820 820 821 822 823 823 823 824 824 823 823 823 824 825 825 826 826 827 827 828 829 830 830 830 830 830 831 831 831 830 830 830
783 785 786 787 789 790 791 792 793 794 795 796 797 798 799 800 801 802 803 804 805 807 808 809 810 811 811 812 813 813 814 814 815 815 816 816 817 817 817 818 818 818 818 818 818 818 818 818 819 819 820 821 821 822 822 822 823 824 824 824 825 825 825 824 824 825 826 826 827 827 828 828 828 829 830 831 831 831 831 831 831 832 831 831 831
784 785 786 788 789 790 791 792 793 794 795 797 798 799 800 801 802 803 804 805 806 807 808 809 810 811 812 813 814 814 815 815 816 816 817 817 818 818 818 819 819 819 819 819 819 819 819 819 820 821 821 822 822 822 823 823 824 824 825 825 826 826 826 826 825 826 826 827 828 829 829 829 829 829 830 831 832 832 832 832 832 833 832 832 832
785 786 787 788 789 790 791 792 794 795 796 797 798 799 800 801 802 803 804 805 807 808 809 810 811 812 813 814 814 815 815 816 816 817 817 817 818 819 819 820 819 820 820 820 820 820 820 820 821 822 822 823 823 823 823 824 825 825 825 826 826 827 828 827 827 827 827 828 829 830 830 830 831 831 831 832 832 833 833 833 833 833 833 833 833
785 786 787 789 790 791 792 793 794 795 796 798 799 800 801 802 803 804 805 806 807 808 809 810 811 812 813 814 815 815 816 817 817 818 818 818 819 819 820 820 820 821 821 821 821 822 822 822 822 823 824 824 824 824 825 825 826 826 826 827 827 828 828 828 828 828 828 829 829 830 831 832 832 832 832 832 832 833 833 833 834 834 834 834 834
786 787 788 789 790 791 792 794 795 796 797 798 799 800 801 802 803 804 805 807 808 809 810 811 812 813 814 814 815 816 816 817 817 818 818 819 819 819 820 820 821 822 822 822 822 823 823 823 823 824 825 825 825 826 826 826 827 827 827 828 828 829 829 829 829 829 829 829 830 830 831 832 832 833 832 832 833 833 834 834 834 835 835 835 835
786 787 788 790 791 792 793 794 795 796 798 798 799 800 802 803 804 805 806 807 808 809 810 811 812 813 814 815 816 816 817 817 818 819 819 819 820 820 820 821 821 822 822 822 822 824 824 824 824 825 825 826 827 827 827 827 828 828 828 829 828 829 830 830 830 830 830 830 831 831 831 832 833 833 833 833 833 834 834 834 835 835 835 835 835
785 787 789 790 791 792 793 795 796 797 798 799 800 801 802 803 804 805 806 808 809 810 811 812 813 814 814 815 816 817 817 818 818 819 819 820 820 821 821 821 821 822 822 822 823 824 825 825 825 825 826 827 827 828 828 828 828 829 829 829 828 828 829 830 831 831 831 831 831 832 832 832 833 834 834 834 834 834 835 835 835 835 835 835 836
786 788 789 790 791 793 794 795 796 797 799 800 801 802 803 804 805 806 807 808 809 810 811 813 813 814 815 816 816 817 817 818 819 819 820 820 820 821 821 821 821 822 822 823 823 824 825 825 825 826 826 827 827 828 828 829 829 829 829 829 828 828 829 830 831 831 832 832 832 833 833 833 834 835 835 835 835 835 835 836 836 835 835 835 836
786 788 790 791 792 793 794 796 797 798 799 800 801 802 803 804 805 806 807 808 809 811 812 813 814 815 815 816 816 817 818 818 819 819 820 820 821 821 821 822 822 822 823 823 824 824 825 826 826 825 826 827 828 828 829 829 830 830 829 829 828 828 829 830 831 832 832 833 833 833 833 834 834 835 836 836 836 836 836 836 836 836 836 836 836
787 789 790 791 792 794 795 797 798 799 800 801 802 803 804 805 806 806 808 809 810 811 812 813 814 815 815 816 817 817 818 818 819 820 820 821 821 822 822 822 822 823 823 824 824 824 825 826 826 826 826 827 828 829 829 830 830 830 830 829 829 828 829 830 831 832 833 833 834 834 834 834 835 836 837 837 837 837 837 837 837 837 837 837 837
788 789 791 792 793 794 796 797 798 799 800 801 802 803 805 805 806 807 808 809 810 811 812 813 814 815 815 816 817 817 818 819 819 820 820 821 821 822 822 823 823 823 823 824 824 825 825 825 826 826 826 827 828 829 829 830 830 830 830 830 830 829 829 830 831 832 833 834 834 835 835 835 835 836 837 838 838 838 838 838 838 838 838 838 838
789 790 791 792 794 795 796 798 799 800 801 802 803 804 805 806 807 807 808 809 810 812 812 813 814 815 815 816 817 817 818 819 819 820 820 821 821 822 823 823 823 823 823 824 824 824 825 825 826 826 826 827 828 828 829 830 831 831 830 830 829 829 830 830 831 832 833 834 835 835 835 835 836 837 838 838 838 839 839 839 839 839 838 838 838
789 791 792 793 794 796 797 798 799 800 801 802 803 804 805 806 807 808 809 810 811 812 812 813 814 815 815 816 817 817 818 819 819 820 820 821 822 822 823 823 823 823 823 824 824 824 825 825 825 826 826 827 828 828 829 830 831 831 831 830 829 829 830 830 831 832 834 834 835 835 836 836 836 837 837 838 839 839 840 840 840 839 839 839 839
790 791 792 794 794 796 797 799 800 801 802 803 804 805 806 807 807 808 809 810 811 811 812 813 814 814 815 816 816 817 818 819 819 820 820 821 822 822 823 823 823 823 823 824 824 824 825 825 825 825 825 826 827 828 829 829 830 830 830 830 829 829 830 831 832 833 834 835 835 836 836 836 837 837 837 838 839 840 840 840 840 840 840 840 840
790 791 792 794 795 797 797 799 800 801 802 803 804 805 806 807 808 809 809 810 811 812 812 813 814 814 815 816 816 817 818 818 819 820 820 821 822 822 822 823 823 823 824 824 824 825 825 825 825 825 825 826 827 828 828 829 829 830 830 830 829 829 830 831 832 833 834 835 835 836 836 837 837 837 838 838 839 839 840 840 841 841 841 840 840
790 791 792 794 795 797 798 799 800 801 803 803 805 805 806 807 808 809 809 810 811 812 812 813 814 814 815 815 816 817 818 818 819 820 820 821 821 822 822 823 823 823 824 824 824 825 825 826 825 825 825 826 827 828 828 829 829 830 830 830 830 829 830 831 832 833 834 835 836 836 837 837 838 838 838 838 839 839 840 841 841 841 841 841 841
789 791 792 794 795 797 798 799 800 801 803 804 805 805 806 807 808 809 809 810 811 812 812 813 814 814 815 815 816 817 818 818 819 819 820 821 821 822 822 822 823 823 824 824 824 825 825 826 826 826 826 826 827 828 828 829 830 830 831 831 830 830 830 832 833 834 834 835 836 836 837 838 838 838 838 839 839 839 840 841 841 841 841 841 841
789 791 792 794 795 797 798 799 801 802 803 804 805 805 806 807 808 809 809 810 811 811 812 813 813 814 815 815 816 817 817 818 818 819 819 820 820 821 822 822 823 823 823 824 824 825 825 826 826 826 826 826 827 828 828 829 830 830 831 831 831 831 831 832 833 834 834 835 836 837 837 838 838 839 839 839 839 839 840 841 841 842 842 842 842
790 791 793 794 796 797 799 799 801 802 803 804 804 805 806 807 808 808 809 810 810 811 812 812 813 814 815 815 816 816 817 817 818 818 819 819 820 820 821 822 822 822 823 823 824 824 825 825 825 826 826 826 827 828 828 829 830 831 831 832 832 831 831 832 833 834 834 835 836 837 837 838 839 839 839 839 839 839 840 841 841 842 842 842 842
791 792 793 795 796 797 799 800 801 802 803 804 804 805 806 807 807 808 809 809 810 810 811 812 813 813 814 815 815 816 817 817 818 818 818 819 819 819 820 820 821 821 822 822 823 823 824 825 825 825 826 826 827 828 828 829 830 831 832 832 832 832 832 832 833 834 834 835 836 836 837 838 838 839 839 839 839 839 840 840 841 842 842 842 842
791 793 794 796 796 798 799 800 801 802 803 803 804 805 805 806 807 808 808 808 809 810 811 811 812 813 814 814 815 816 816 817 817 817 818 818 818 819 819 819 820 820 821 822 822 822 823 824 825 825 826 826 826 827 828 829 829 831 832 832 832 832 832 833 833 834 834 835 836 836 837 837 838 838 839 839 839 839 839 840 841 841 841 842 843
792 793 795 796 797 798 799 800 801 802 803 803 804 805 805 806 806 807 808 808 809 809 810 811 812 813 814 814 815 816 816 816 817 817 818 818 818 818 818 818 818 819 820 821 821 822 822 823 824 825 825 826 826 827 827 828 829 830 831 832 833 833 833 833 833 834 834 835 835 836 836 837 838 838 839 839 839 839 839 839 840 840 841 841 842
792 794 795 796 797 798 799 800 801 802 803 803 804 804 805 806 807 807 808 809 809 809 810 811 812 813 813 814 814 815 816 816 817 817 817 818 818 817 817 817 817 818 819 820 821 821 822 822 823 824 825 825 826 826 826 827 828 829 830 831 832 833 833 833 833 833 834 834 835 836 836 837 837 838 838 838 839 839 839 839 840 840 840 841 842
793 794 795 797 798 799 799 800 801 802 803 803 804 804 805 806 807 807 808 808 809 809 810 811 812 812 813 814 814 815 815 816 816 816 816 817 817 816 816 816 817 818 819 820 821 821 822 822 823 824 825 825 825 825 826 826 827 828 829 831 832 832 833 833 833 833 833 834 835 835 836 836 837 837 838 838 839 839 839 839 839 840 840 840 841
794 795 796 797 798 799 799 800 801 802 803 803 804 804 805 806 806 807 807 808 808 809 809 810 811 812 813 813 814 814 815 815 815 815 815 815 816 815 814 814 816 817 817 819 820 821 822 822 823 823 824 825 825 825 826 826 826 827 828 829 831 831 832 832 833 833 833 833 834 835 835 836 836 837 837 838 838 838 839 839 839 839 840 840 840
794 795 797 798 799 799 800 801 801 802 803 804 804 805 805 806 806 806 807 807 808 808 809 810 810 811 812 813 813 814 814 814 814 814 814 814 814 814 814 814 814 815 816 819 820 821 821 822 822 823 824 824 825 825 825 825 825 826 827 828 829 830 831 831 832 832 832 833 833 834 834 835 836 836 837 837 838 838 838 838 839 839 839 839 840
794 795 797 798 799 799 800 801 802 803 803 804 804 805 805 806 806 806 807 807 808 808 808 809 810 811 811 812 813 813 813 814 813 813 813 813 814 815 815 813 813 813 815 818 820 821 821 822 822 823 823 824 824 825 825 825 825 825 826 827 828 829 829 830 831 831 832 832 832 833 833 834 835 835 836 837 837 837 838 838 838 839 839 839 839
792 794 796 797 798 799 800 801 802 803 803 804 805 805 806 806 806 807 807 808 808 808 808 809 810 811 811 812 812 812 813 813 813 812 812 813 815 817 815 813 813 814 815 816 818 819 821 821 822 823 824 824 824 824 824 824 824 825 825 826 827 828 828 829 830 830 831 831 831 832 832 833 834 834 835 836 836 837 837 837 838 838 838 839 839
791 793 795 796 798 799 800 801 802 803 804 804 805 805 806 806 807 807 808 808 808 809 809 810 811 811 811 812 812 812 812 812 812 811 812 814 815 815 814 814 814 815 815 816 817 818 819 819 820 822 823 824 823 824 823 823 823 824 824 824 825 826 827 828 828 829 830 830 830 831 831 832 833 833 834 834 835 836 836 837 837 838 838 839 839
789 791 794 795 797 798 799 801 802 803 804 804 805 806 806 807 807 808 808 809 809 809 810 810 811 811 811 812 812 812 812 812 812 811 812 814 813 813 814 815 814 813 813 814 816 817 818 818 819 820 822 823 823 823 823 823 823 822 822 823 824 825 826 826 827 828 829 829 829 830 830 831 832 833 833 833 834 835 835 836 837 837 838 839 839
788 790 792 794 796 797 798 800 801 802 803 804 805 806 807 807 808 808 809 809 810 810 810 810 811 812 812 812 812 812 812 813 812 812 812 812 812 813 815 816 814 811 811 813 814 815 816 817 818 819 821 822 822 822 822 822 822 822 821 821 822 823 825 825 826 827 827 828 829 829 830 830 831 832 832 833 833 834 835 835 836 837 837 838 838
787 789 791 793 794 796 798 799 800 802 803 804 805 806 807 808 808 809 809 810 810 810 811 811 811 812 812 813 813 813 813 813 813 813 812 812 812 814 815 815 813 812 812 813 813 814 815 816 817 818 820 821 821 822 823 823 822 821 820 820 821 822 823 824 825 825 826 827 827 828 828 829 830 831 831 832 832 833 833 834 835 835 836 837 837
787 789 790 793 794 796 798 799 800 801 802 803 805 806 807 808 808 809 810 810 811 811 811 812 812 813 813 813 813 813 813 813 813 813 813 812 813 814 814 814 813 812 813 813 813 813 814 815 817 817 818 820 820 821 823 823 822 821 820 820 820 821 822 823 824 824 824 825 826 826 827 828 828 829 830 830 831 831 832 833 833 834 834 835 836
787 788 790 792 794 796 798 800 801 802 802 803 804 805 806 808 809 809 810 811 811 812 812 812 813 813 813 814 814 814 814 814 814 813 813 813 813 813 813 813 812 812 812 813 813 813 814 814 815 816 818 820 820 821 823 823 822 821 820 819 819 820 820 821 822 822 823 823 824 825 825 826 827 827 828 828 829 830 830 831 832 832 833 833 834
787 788 789 791 794 796 798 799 801 802 803 803 803 805 806 807 808 810 810 811 812 812 813 813 813 813 814 814 814 814 814 814 814 813 813 813 813 813 813 813 812 812 812 813 813 813 814 814 814 816 818 820 820 821 822 822 821 821 820 819 819 819 820 820 820 820 821 822 822 823 824 824 825 825 826 827 827 828 829 829 830 831 831 832 833
786 787 788 790 793 795 797 799 800 802 803 803 803 804 806 807 808 809 810 811 812 812 813 813 813 813 813 814 814 814 814 814 814 813 813 813 813 814 814 813 812 812 812 813 814 813 813 814 815 816 818 820 820 820 821 821 821 822 822 820 818 818 818 818 818 819 819 820 820 821 821 822 822 823 824 825 826 826 827 828 829 829 830 831 832
785 787 788 790 792 795 797 799 800 801 802 803 804 804 805 807 808 809 810 811 812 813 813 813 813 813 813 814 815 815 815 814 814 814 813 813 814 814 814 814 814 813 813 814 814 813 814 815 816 817 818 819 820 820 821 820 821 822 824 823 820 819 818 817 817 817 817 818 818 819 819 820 820 821 823 823 823 824 825 826 827 827 828 829 830
785 786 787 789 791 794 796 798 799 800 802 803 805 805 805 807 808 809 810 811 812 813 813 813 813 813 814 814 815 815 815 815 814 814 814 813 814 814 814 814 814 814 814 814 814 815 815 816 817 818 818 819 820 821 821 821 821 822 823 822 821 821 820 818 817 816 816 816 816 816 817 818 818 820 820 821 821 822 823 824 824 825 826 827 828
783 784 786 787 790 792 795 797 799 800 801 803 804 805 805 806 808 809 810 811 812 813 813 813 813 813 814 814 815 815 815 815 815 814 814 814 814 814 814 814 815 815 815 815 816 816 817 817 818 818 818 819 819 820 821 821 821 821 821 821 822 822 821 820 819 816 814 815 815 815 815 816 817 818 818 819 819 820 821 822 822 823 824 825 826
781 783 785 786 788 791 794 796 798 799 801 802 804 805 805 805 806 808 809 810 811 812 813 813 813 813 814 814 815 815 816 815 815 815 814 814 814 814 814 815 815 816 816 816 817 817 817 818 818 818 818 819 819 819 819 819 820 820 819 820 821 821 820 820 821 819 815 814 814 814 815 815 816 816 817 817 818 818 818 819 820 821 821 822 823
779 782 785 787 788 791 793 795 797 798 800 801 803 804 805 805 805 807 808 809 810 811 812 813 813 813 814 815 815 816 816 816 816 815 815 814 814 814 814 815 815 816 816 817 817 817 817 818 818 818 818 819 819 819 819 819 819 819 819 819 819 820 820 820 821 821 819 816 814 814 815 816 816 816 816 816 816 816 816 817 818 818 819 819 820
778 782 784 786 789 791 793 795 797 798 799 800 802 803 804 804 805 806 807 809 810 811 812 812 813 813 814 815 815 816 816 816 816 816 816 815 815 815 815 815 816 816 817 817 817 818 818 818 818 818 818 818 819 819 820 820 819 819 819 819 819 819 820 820 820 821 821 819 816 815 814 815 815 815 815 815 815 815 815 815 816 816 816 817 817
777 779 782 785 788 790 792 795 796 797 798 799 801 802 803 804 804 805 806 808 810 811 811 812 813 813 814 814 815 816 816 816 817 817 817 817 816 816 816 816 816 817 817 818 818 818 818 818 818 818 818 819 819 819 820 820 820 820 820 819 819 819 819 820 820 819 820 820 819 817 815 814 813 813 814 815 814 814 814 814 814 814 814 814 815
775 778 781 784 787 789 791 793 794 796 797 798 799 801 802 803 804 804 805 807 809 810 811 812 812 813 814 814 814 815 816 816 817 817 818 818 817 817 817 817 817 817 818 818 818 819 819 819 819 819 819 819 819 819 820 820 820 820 820 820 819 819 819 819 819 819 819 819 818 817 816 816 814 811 812 813 813 813 813 813 813 813 812 812 813
776 778 780 782 785 787 789 790 792 794 795 796 798 799 800 802 802 803 804 806 807 809 810 810 811 812 813 814 814 815 815 816 817 818 818 818 818 818 818 818 818 818 818 818 818 819 819 819 819 819 819 819 819 819 819 819 819 819 819 820 820 820 820 820 820 819 819 818 818 817 816 816 815 812 810 811 811 811 811 811 811 811 811 810 811